Notices

What's New in latest Release from April 7th, 2021:

- Updated Glossary, including Speed of Maximum Gust, and Total Hourly Precipitation

- Updated national and regional climate services offices contacts and prices information

- Addition of station inventory lists for 1981-2010, 1971-2000, and 1961-1990 Normals.

If you haven't already, please take our survey and provide feedback about our website: https://eccc.sondage-survey.ca/f/LanguageSelection.aspx?s=442ca660-fcf1-47c0-95a9-59707d6fd709

Hourly Data Report for March 01, 2020

MIRAMICHI RCS
NEW BRUNSWICK
Current Station Operator: ECCC - MSC

47°00'34.000" N
65°27'54.000" W
33.00 m
8100989
71744
ACQ

Download Data

Hourly Data (March 2020)
Hourly Data Report for March 1, 2020
TIME
LST
Temp Definition
°C
Dew Point Definition
°C
Rel Hum Definition
%
Precip. Amount Definition
mm

Wind Dir Definition
10's deg

Wind Spd Definition
km/h
Visibility Definition
km
Stn Press Definition
kPa
Hmdx Definition


Wind Chill Definition


Weather Definition


00:00 -6.1 -7.8 88 LegendMM 36 5   100.34   -9 LegendNANA
01:00 -5.8 -7.8 86 LegendMM 35 6   100.34   -9 LegendNANA
02:00 -5.9 -7.2 91 LegendMM 35 6   100.34   -9 LegendNANA
03:00 -6.0 -7.1 92 LegendMM 36 7   100.31   -9 LegendNANA
04:00 -5.8 -6.9 92 LegendMM 35 6   100.30   -9 LegendNANA
05:00 -5.8 -7.0 91 LegendMM 35 8   100.32   -10 LegendNANA
06:00 -6.0 -7.2 91 LegendMM 35 7   100.35   -9 LegendNANA
07:00 -6.3 -7.5 91 LegendMM 34 7   100.36   -10 LegendNANA
08:00 -6.3 -7.7 90 LegendMM 36 8   100.42   -10 LegendNANA
09:00 -5.6 -7.5 87 LegendMM 36 11   100.44   -10 LegendNANA
10:00 -5.2 -7.3 85 LegendMM 34 11   100.49   -10 LegendNANA
11:00 -4.9 -7.3 83 LegendMM 36 14   100.49   -10 LegendNANA
12:00 -4.4 -6.7 84 LegendMM 36 16   100.51   -10 LegendNANA
13:00 -4.1 -6.4 84 LegendMM 36 12   100.51   -9 LegendNANA
14:00 -4.1 -6.4 84 LegendMM 36 14   100.51   -9 LegendNANA
15:00 -3.3 -6.6 78 LegendMM 1 15   100.55   -8 LegendNANA
16:00 -3.4 -6.6 79 LegendMM 36 15   100.61   -9 LegendNANA
17:00 -3.9 -6.1 84 LegendMM 1 11   100.68   -8 LegendNANA
18:00 -4.2 -5.7 89 LegendMM 2 8   100.79   -8 LegendNANA
19:00 -4.2 -5.3 93 LegendMM 36 6   100.90   -7 LegendNANA
20:00 -4.3 -5.4 92 LegendMM 34 6   100.97   -7 LegendNANA
21:00 -4.2 -5.9 88 LegendMM 34 8   101.03   -8 LegendNANA
22:00 -4.7 -6.8 85 LegendMM 35 5   101.07   -7 LegendNANA
23:00 -4.9 -6.4 89 LegendMM 32 6   101.10   -8 LegendNANA

Notes on Data Quality.

Legend

  • E = Estimated
  • M = Missing
  • NA = Not Available*
  • [empty] = Indicates an unobserved value
Date modified: